Location: Terra Rouge Observatory
(46.0000°N, 62.7500°W)
Time: 13:44:47
(UTC-03:00)

Amateur Radio Satellites - All Passes

Search period start: 25 October 2014 13:14
Search period end: 26 October 2014 13:14
Location: Terra Rouge Observatory, 46.0000°N, 62.7500°W

Satellite Date Start Highest point End Downlink Frequencies (MHz)
Time Altitude Azimuth
ISS 25 Oct 13:24:48 13:28:01 47° 145° (SE) 13:31:15 145.800 FM
Sapphire 25 Oct 13:30:40 13:36:07 74° 241° (WSW) 13:41:31 437.095 MHz 1200 baud AX-25 AFSK
Gurwin Techsat 1B 25 Oct 13:31:34 13:34:54 17° 58° (ENE) 13:38:15 435.225 FM
Oscar 19 25 Oct 13:32:57 13:38:02 65° 72° (ENE) 13:43:08 437.125 CW, 437.150 USB
AO-7 25 Oct 13:38:56 13:42:19 13° 36° (NE) 13:45:42 29.400 - 29.500 MHz
JAS-1B 25 Oct 13:39:31 13:45:19 63° 71° (ENE) 13:50:56 435.800 - 435.900 CW/SSB
TMSAT-1 25 Oct 13:42:40 13:45:49 16° 57° (ENE) 13:48:58 436.925 FM
Oscar 10/S400 25 Oct 13:52:16 14:08:13 30° 151° (SSE) 14:27:52 145.825 - 145.975 CW/USB, Beacon 145.810 USB
AO-27 25 Oct 13:52:18 13:57:13 43° 68° (ENE) 14:02:09 436.795 MHz FM
PCSat 25 Oct 13:53:21 13:58:32 46° 246° (WSW) 14:03:40 145.825 MHz
SO-50 25 Oct 13:57:00 14:01:31 73° 308° (NW) 14:06:12 436.795 FM
KITSAT 1 25 Oct 13:59:27 14:07:22 56° 312° (NW) 14:15:19 435.175 FM
AO-Echo 25 Oct 14:09:18 14:14:12 72° 73° (ENE) 14:19:17 ?
Oscar 16 25 Oct 14:19:00 14:24:00 50° 260° (W) 14:29:01 437.025 USB, Beacon 2401.1428
Uribyol 2 25 Oct 14:39:20 14:44:33 73° 257° (WSW) 14:49:49 436.500 FM
ITAMSAT 1 25 Oct 14:45:34 14:50:45 69° 257° (WSW) 14:56:00 435.822 SSB
Saudisat 1A 25 Oct 15:00:29 15:03:52 21° 36° (NE) 15:07:14 436.775 MHz
ISS 25 Oct 15:01:35 15:04:47 41° 344° (NNW) 15:07:59 145.800 FM
Gurwin Techsat 1B 25 Oct 15:08:55 15:14:14 80° 256° (WSW) 15:19:35 435.225 FM
Oscar 19 25 Oct 15:14:26 15:17:50 18° 270° (W) 15:21:16 437.125 CW, 437.150 USB
Sapphire 25 Oct 15:17:12 15:18:34 11° 259° (W) 15:19:55 437.095 MHz 1200 baud AX-25 AFSK
UOSAT-12 25 Oct 15:17:14 15:21:52 74° 124° (ESE) 15:26:36 437.025 FM, 437.400 FM
TMSAT-1 25 Oct 15:19:44 15:25:02 85° 255° (WSW) 15:30:24 436.925 FM
AO-7 25 Oct 15:25:20 15:33:03 46° 60° (ENE) 15:40:48 29.400 - 29.500 MHz
AO-27 25 Oct 15:32:29 15:36:53 27° 266° (W) 15:41:19 436.795 MHz FM
JAS-1B 25 Oct 15:32:36 15:36:35 19° 269° (W) 15:40:28 435.800 - 435.900 CW/SSB
SO-50 25 Oct 15:39:55 15:42:55 17° 330° (NNW) 15:45:58 436.795 FM
AO-Echo 25 Oct 15:50:45 15:53:34 15° 272° (W) 15:56:27 ?
Uosat F 25 Oct 15:55:14 15:59:46 35° 66° (ENE) 16:04:21 435.120 FM
KITSAT 1 25 Oct 15:58:39 16:04:44 23° 339° (NNW) 16:10:50 435.175 FM
JAS-2 25 Oct 16:24:01 16:28:52 24° 56° (NE) 16:34:11 435.800 - 435.900 CW/SSB, 435.910 FM
ISS 25 Oct 16:38:59 16:41:59 30° 4° (N) 16:45:00 145.800 FM
Saudisat 1A 25 Oct 16:39:28 16:43:54 72° 236° (SW) 16:48:18 436.775 MHz
Hamsat 25 Oct 16:42:38 16:44:23 12° 60° (ENE) 16:46:07 145.90 MHz
Gurwin Techsat 1B 25 Oct 16:53:44 16:55:03 11° 274° (W) 16:56:23 435.225 FM
UOSAT-12 25 Oct 16:58:50 17:02:31 22° 324° (NW) 17:06:16 437.025 FM, 437.400 FM
TMSAT-1 25 Oct 17:03:53 17:05:46 12° 274° (W) 17:07:39 436.925 FM
AO-40 25 Oct 17:16:31 23:06:50 35° 186° (S) 04:28:34 Beacon 2401.320
AO-7 25 Oct 17:17:57 17:25:49 47° 260° (W) 17:33:46 29.400 - 29.500 MHz
Uosat F 25 Oct 17:34:06 17:38:34 32° 264° (W) 17:43:05 435.120 FM
OPAL 25 Oct 17:37:10 17:40:53 21° 94° (E) 17:44:33 ?
KITSAT 1 25 Oct 17:58:15 18:03:37 19° 9° (N) 18:08:58 435.175 FM
JAS-2 25 Oct 18:07:11 18:13:11 72° 258° (WSW) 18:20:04 435.800 - 435.900 CW/SSB, 435.910 FM
Hamsat 25 Oct 18:15:33 18:19:46 76° 258° (WSW) 18:23:58 145.90 MHz
ISS 25 Oct 18:15:45 18:19:05 64° 24° (NNE) 18:22:24 145.800 FM
SO-67 25 Oct 18:57:34 19:00:46 38° 72° (ENE) 19:03:59 435.3500 MHz FM
SO-50 25 Oct 19:06:59 19:08:25 11° 20° (NNE) 19:09:52 436.795 FM
HO-68 25 Oct 19:13:09 19:17:42 18° 49° (NE) 19:22:15 435.675 MHz FM
OPAL 25 Oct 19:15:15 19:20:05 53° 292° (WNW) 19:24:52 ?
STRAND 1 25 Oct 19:22:15 19:26:44 29° 95° (E) 19:31:10 ?
ISS 25 Oct 19:52:49 19:55:33 23° 222° (SW) 19:58:16 145.800 FM
KITSAT 1 25 Oct 19:54:27 20:01:47 36° 38° (NE) 20:09:05 435.175 FM
JAS-2 25 Oct 19:57:41 19:59:45 12° 280° (W) 20:01:54 435.800 - 435.900 CW/SSB, 435.910 FM
SO-67 25 Oct 20:32:02 20:33:55 14° 269° (W) 20:35:50 435.3500 MHz FM
Oscar 11 25 Oct 20:36:10 20:38:06 13° 59° (ENE) 20:40:03 145.825 FM, Beacon 2401.500 USB
SO-50 25 Oct 20:46:01 20:50:25 34° 43° (NE) 20:54:52 436.795 FM
HO-68 25 Oct 20:57:08 21:04:17 76° 70° (ENE) 21:11:28 435.675 MHz FM
STRAND 1 25 Oct 21:01:13 21:06:01 40° 293° (WNW) 21:10:47 ?
ZACube-1 25 Oct 21:26:30 21:29:44 20° 63° (ENE) 21:32:56 437.345 MHz
UKube-1 25 Oct 21:28:48 21:32:58 46° 70° (ENE) 21:37:10 145.840 MHz, 145.915 MHz
KITSAT 1 25 Oct 21:49:49 21:57:53 73° 241° (WSW) 22:05:53 435.175 FM
UOSAT-12 25 Oct 22:05:01 22:08:53 24° 37° (NE) 22:12:42 437.025 FM, 437.400 FM
RS-15 25 Oct 22:06:02 22:16:17 48° 112° (ESE) 22:26:30 29.354 - 29.394 USB, Beacon 29.352 USB
Oscar 11 25 Oct 22:09:22 22:13:41 78° 257° (WSW) 22:18:02 145.825 FM, Beacon 2401.500 USB
FUNcube-1 25 Oct 22:09:37 22:14:00 48° 71° (ENE) 22:18:20 145.950 - 145.970 MHz USB
SO-50 25 Oct 22:26:31 22:31:05 42° 242° (WSW) 22:35:40 436.795 FM
HO-68 25 Oct 22:47:15 22:52:41 23° 269° (W) 22:58:10 435.675 MHz FM
ZACube-1 25 Oct 23:01:18 23:05:47 52° 260° (W) 23:10:12 437.345 MHz
UKube-1 25 Oct 23:06:18 23:09:24 19° 267° (W) 23:12:31 145.840 MHz, 145.915 MHz
MaSat-1 25 Oct 23:41:02 23:44:44 34° 112° (ESE) 23:48:08 437.345 MHz
UOSAT-12 25 Oct 23:44:46 23:49:28 66° 237° (WSW) 23:54:05 437.025 FM, 437.400 FM
FUNcube-1 25 Oct 23:47:17 23:50:36 20° 268° (W) 23:53:54 145.950 - 145.970 MHz USB
KITSAT 1 25 Oct 23:47:32 23:51:52 16° 261° (W) 23:56:13 435.175 FM
RS-15 26 Oct 00:17:39 00:28:26 59° 316° (NW) 00:39:17 29.354 - 29.394 USB, Beacon 29.352 USB
MaSat-1 26 Oct 01:17:10 01:20:23 23° 307° (NW) 01:23:20 437.345 MHz
JAS-1B 26 Oct 01:20:23 01:24:24 16° 89° (E) 01:28:45 435.800 - 435.900 CW/SSB
Oscar 19 26 Oct 01:43:00 01:46:34 19° 91° (E) 01:50:06 437.125 CW, 437.150 USB
AO-27 26 Oct 02:04:46 02:06:53 12° 87° (E) 02:08:58 436.795 MHz FM
AO-Echo 26 Oct 02:14:38 02:18:38 21° 91° (E) 02:22:36 ?
Oscar 16 26 Oct 02:28:01 02:32:59 47° 99° (E) 02:37:54 437.025 USB, Beacon 2401.1428
RS-15 26 Oct 02:34:20 02:43:38 30° 348° (NNW) 02:53:06 29.354 - 29.394 USB, Beacon 29.352 USB
Uribyol 2 26 Oct 02:49:53 02:54:35 33° 96° (E) 02:59:14 436.500 FM
ITAMSAT 1 26 Oct 02:56:09 03:00:57 35° 97° (E) 03:05:42 435.822 SSB
PCSat 26 Oct 02:56:32 02:59:41 16° 104° (ESE) 03:02:50 145.825 MHz
JAS-1B 26 Oct 03:09:03 03:15:41 83° 105° (ESE) 03:23:39 435.800 - 435.900 CW/SSB
Oscar 19 26 Oct 03:21:16 03:26:20 61° 289° (WNW) 03:31:21 437.125 CW, 437.150 USB
Gurwin Techsat 1B 26 Oct 03:22:53 03:27:43 34° 96° (E) 03:32:31 435.225 FM
TMSAT-1 26 Oct 03:33:23 03:38:08 32° 95° (E) 03:42:50 436.925 FM
AO-27 26 Oct 03:41:52 03:47:08 89° 105° (ESE) 03:52:22 436.795 MHz FM
AO-Echo 26 Oct 03:52:32 03:57:45 58° 289° (WNW) 04:02:57 ?
Oscar 16 26 Oct 04:07:56 04:12:04 25° 297° (WNW) 04:16:12 437.025 USB, Beacon 2401.1428
Sapphire 26 Oct 04:14:38 04:19:58 63° 118° (ESE) 04:25:20 437.095 MHz 1200 baud AX-25 AFSK
Uribyol 2 26 Oct 04:29:20 04:34:04 36° 294° (WNW) 04:38:45 436.500 FM
ITAMSAT 1 26 Oct 04:35:44 04:40:24 34° 295° (WNW) 04:45:03 435.822 SSB
PCSat 26 Oct 04:36:57 04:42:22 83° 303° (WNW) 04:47:50 145.825 MHz
RS-15 26 Oct 04:50:19 05:00:10 35° 23° (NNE) 05:10:16 29.354 - 29.394 USB, Beacon 29.352 USB
OPAL 26 Oct 04:53:55 04:58:52 51° 67° (ENE) 05:03:48 ?
JAS-1B 26 Oct 05:01:04 05:05:48 22° 302° (WNW) 05:11:06 435.800 - 435.900 CW/SSB
Gurwin Techsat 1B 26 Oct 05:02:52 05:07:41 36° 294° (WNW) 05:12:28 435.225 FM
TMSAT-1 26 Oct 05:13:13 05:18:06 38° 293° (WNW) 05:22:57 436.925 FM
JAS-2 26 Oct 05:14:11 05:19:39 20° 86° (E) 05:25:05 435.800 - 435.900 CW/SSB, 435.910 FM
AO-7 26 Oct 05:15:59 05:24:06 53° 102° (ESE) 05:32:12 29.400 - 29.500 MHz
AO-27 26 Oct 05:23:00 05:25:55 15° 304° (WNW) 05:28:50 436.795 MHz FM
Uosat F 26 Oct 05:38:29 05:43:32 65° 102° (ESE) 05:48:33 435.120 FM
Sapphire 26 Oct 05:59:15 06:03:49 27° 318° (NW) 06:08:24 437.095 MHz 1200 baud AX-25 AFSK
Hamsat 26 Oct 05:59:45 06:02:22 16° 91° (E) 06:04:59 145.90 MHz
PCSat 26 Oct 06:22:44 06:26:38 20° 324° (NW) 06:30:32 145.825 MHz
OPAL 26 Oct 06:34:00 06:38:01 23° 265° (W) 06:42:01 ?
STRAND 1 26 Oct 06:40:25 06:45:24 54° 70° (ENE) 06:50:26 ?
Saudisat 1A 26 Oct 06:49:46 06:52:25 16° 111° (ESE) 06:55:05 436.775 MHz
JAS-2 26 Oct 06:57:45 07:05:35 87° 105° (ESE) 07:13:25 435.800 - 435.900 CW/SSB, 435.910 FM
RS-15 26 Oct 07:03:20 07:14:31 79° 52° (NE) 07:26:09 29.354 - 29.394 USB, Beacon 29.352 USB
AO-7 26 Oct 07:09:07 07:16:42 42° 302° (WNW) 07:24:18 29.400 - 29.500 MHz
Uosat F 26 Oct 07:18:20 07:21:50 19° 301° (WNW) 07:25:20 435.120 FM
Hamsat 26 Oct 07:34:33 07:38:37 51° 288° (WNW) 07:42:42 145.90 MHz
SO-67 26 Oct 07:51:09 07:54:17 31° 97° (E) 07:57:24 435.3500 MHz FM
STRAND 1 26 Oct 08:21:02 08:24:55 21° 268° (W) 08:28:50 ?
HO-68 26 Oct 08:26:00 08:27:40 11° 83° (E) 08:29:21 435.675 MHz FM
Saudisat 1A 26 Oct 08:27:06 08:31:28 68° 309° (NW) 08:35:53 436.775 MHz
JAS-2 26 Oct 08:43:48 08:49:43 25° 304° (NW) 08:55:44 435.800 - 435.900 CW/SSB, 435.910 FM
AO-7 26 Oct 09:04:37 09:07:17 12° 326° (NW) 09:09:56 29.400 - 29.500 MHz
RS-15 26 Oct 09:16:29 09:25:54 33° 254° (WSW) 09:35:40 29.354 - 29.394 USB, Beacon 29.352 USB
MaSat-1 26 Oct 09:24:20 09:26:56 55° 245° (WSW) 09:29:19 437.345 MHz
SO-67 26 Oct 09:24:41 09:27:03 18° 294° (WNW) 09:29:24 435.3500 MHz FM
Oscar 11 26 Oct 09:55:38 09:58:20 16° 91° (E) 10:01:01 145.825 FM, Beacon 2401.500 USB
Saudisat 1A 26 Oct 10:09:17 10:11:52 15° 330° (NNW) 10:14:27 436.775 MHz
HO-68 26 Oct 10:09:39 10:16:49 63° 103° (ESE) 10:23:55 435.675 MHz FM
KITSAT 1 26 Oct 10:32:30 10:34:22 11° 96° (E) 10:36:14 435.175 FM
ZACube-1 26 Oct 10:48:37 10:52:07 24° 94° (E) 10:55:32 437.345 MHz
UKube-1 26 Oct 10:50:21 10:54:41 61° 102° (ESE) 10:59:00 145.840 MHz, 145.915 MHz
Sapphire 26 Oct 11:17:28 11:21:25 20° 36° (NE) 11:25:21 437.095 MHz 1200 baud AX-25 AFSK
Oscar 11 26 Oct 11:30:38 11:34:50 53° 288° (WNW) 11:39:01 145.825 FM, Beacon 2401.500 USB
FUNcube-1 26 Oct 11:32:29 11:36:45 71° 102° (ESE) 11:40:54 145.950 - 145.970 MHz USB
PCSat 26 Oct 11:39:34 11:44:11 27° 42° (NE) 11:48:47 145.825 MHz
HO-68 26 Oct 11:57:59 12:04:05 31° 303° (WNW) 12:10:10 435.675 MHz FM
Oscar 16 26 Oct 12:11:18 12:13:57 14° 56° (NE) 12:16:36 437.025 USB, Beacon 2401.1428
JAS-1B 26 Oct 12:11:29 12:14:25 15° 53° (NE) 12:17:21 435.800 - 435.900 CW/SSB
KITSAT 1 26 Oct 12:20:11 12:28:02 59° 116° (ESE) 12:35:55 435.175 FM
ZACube-1 26 Oct 12:24:45 12:28:35 33° 292° (WNW) 12:32:20 437.345 MHz
UKube-1 26 Oct 12:27:43 12:30:25 16° 299° (WNW) 12:33:07 145.840 MHz, 145.915 MHz
Uribyol 2 26 Oct 12:35:32 12:36:42 11° 52° (NE) 12:37:53 436.500 FM
ISS 26 Oct 12:35:59 12:38:55 29° 140° (SE) 12:41:52 145.800 FM
ITAMSAT 1 26 Oct 12:41:27 12:43:07 12° 53° (NE) 12:44:46 435.822 SSB
SO-50 26 Oct 12:43:41 12:47:47 36° 117° (ESE) 12:52:00 436.795 FM
Sapphire 26 Oct 13:00:11 13:05:40 85° 58° (ENE) 13:11:06 437.095 MHz 1200 baud AX-25 AFSK
Oscar 19 26 Oct 13:01:58 13:06:37 35° 66° (ENE) 13:11:15 437.125 CW, 437.150 USB
FUNcube-1 26 Oct 13:10:32 13:12:33 13° 300° (WNW) 13:14:33 145.950 - 145.970 MHz USB
Gurwin Techsat 1B 26 Oct 13:10:55 13:12:36 12° 53° (NE) 13:14:17 435.225 FM
